Weather History for Chennai, India

Change the Weather History Date:

Saturday, August 17, 2013

  Actual Average Record
Temperature  
Mean Temperature 82 °F -  
Max Temperature 90 °F 90 °F 100 °F (2004)
Min Temperature 73 °F 77 °F 73 °F (2007)
Cooling Degree Days 16    
Growing Degree Days 32 (Base 50)    
Moisture  
Dew Point 75 °F    
Average Humidity 79    
Maximum Humidity 94    
Minimum Humidity 51    
Precipitation  
Precipitation 0.00 in 0.20 in - ()
Sea Level Pressure  
Sea Level Pressure 29.71 in    
Wind  
Wind Speed 7 mph ()    
Max Wind Speed 15 mph    
Max Gust Speed -    
Visibility 3.5 miles    
Events Rain    
Averages and records for this station are not official NWS values.
T = Trace of Precipitation, MM = Missing Value Source: Averaged Metar Reports

Daily Weather History Graph

Daily Weather History Graph

Search for Another Location

Airport:

Trip Planner

Search our weather history database for the weather conditions in past years. The results will help you decide how hot, cold, wet, or windy it might be!

Date:

Astronomy

Aug. 17, 2013 Rise Set
Actual Time 5:57 AM IST 6:29 PM IST
Civil Twilight 5:35 AM IST 6:51 PM IST
Nautical Twilight 5:09 AM IST 7:16 PM IST
Astronomical Twilight 4:43 AM IST 7:42 PM IST
Moon 3:00 PM IST (8/17) 1:50 AM IST (8/17)
Length of Visible Light 13h 15m
Length of Day
12h 32m
Waxing Gibbous, 80% of the Moon is Illuminated
Aug 17
Waxing Gibbous
Aug 21
Full
Aug 28
Last Quarter
Sep 5
New
Sep 12
First Quarter

Hourly Weather History & Observations

Time (IST) Temp. Heat Index Dew Point Humidity Pressure Visibility Wind Dir Wind Speed Gust Speed Precip Events Conditions
12:40 AM 75.2 °F - 73.4 °F 94% 29.74 in 1.9 mi WSW 8.1 mph - N/A Rain Rain
1:10 AM 75.2 °F - 73.4 °F 94% 29.74 in 1.9 mi WSW 8.1 mph - N/A Rain Rain
2:10 AM 75.2 °F - 73.4 °F 94% 29.74 in 2.5 mi SW 5.8 mph - N/A Rain Light Rain
2:30 AM 75 °F - 74 °F 94% 29.75 in 1 mi WSW 2.3 mph - - Rain Light Rain
2:40 AM 75.2 °F - 73.4 °F 94% 29.74 in 2.5 mi SSW 8.1 mph - N/A Rain Light Rain
3:10 AM 75.2 °F - 73.4 °F 94% 29.71 in 2.5 mi SW 8.1 mph - N/A Rain Light Rain
3:40 AM 75.2 °F - 73.4 °F 94% 29.71 in 2.5 mi SW 8.1 mph - N/A Rain Light Rain
4:10 AM 75.2 °F - 73.4 °F 94% 29.71 in 2.5 mi WSW 8.1 mph - N/A Rain Light Rain
5:10 AM 75.2 °F - 73.4 °F 94% 29.71 in 3.1 mi SW 11.5 mph - N/A   Light Drizzle
5:30 AM 75 °F - 74 °F 94% 29.74 in 2 mi WSW 2.3 mph - - Rain Light Drizzle
5:40 AM 75.2 °F - 73.4 °F 94% 29.71 in 3.1 mi SW 8.1 mph - N/A   Light Drizzle
6:10 AM 75.2 °F - 73.4 °F 94% 29.71 in 3.1 mi SW 11.5 mph - N/A   Haze
6:40 AM 75.2 °F - 73.4 °F 94% 29.71 in 3.1 mi SW 8.1 mph - N/A   Haze
7:10 AM 77.0 °F - 73.4 °F 89% 29.74 in 3.1 mi SW 9.2 mph - N/A   Haze
7:40 AM 78.8 °F - 73.4 °F 83% 29.74 in 3.1 mi SW 6.9 mph - N/A   Haze
8:10 AM 78.8 °F - 73.4 °F 83% 29.74 in 3.1 mi WSW 5.8 mph - N/A   Haze
8:30 AM 78 °F - 75 °F 87% 29.78 in 2 mi Calm Calm - -   Partly Cloudy
8:40 AM 78.8 °F - 73.4 °F 83% 29.74 in 3.1 mi SW 8.1 mph - N/A   Haze
9:40 AM 80.6 °F 85.4 °F 73.4 °F 79% 29.74 in 3.7 mi SSW 9.2 mph - N/A   Mostly Cloudy
10:10 AM 82.4 °F 88.2 °F 73.4 °F 74% 29.74 in 3.7 mi SW 8.1 mph - N/A   Mostly Cloudy
10:40 AM 82.4 °F 88.2 °F 73.4 °F 74% 29.74 in 3.7 mi SW 10.4 mph - N/A   Mostly Cloudy
11:10 AM 84.2 °F 90.9 °F 73.4 °F 70% 29.74 in 3.7 mi WSW 11.5 mph - N/A   Mostly Cloudy
11:30 AM 85 °F - 74 °F 64% 29.75 in 6 mi WNW 3.5 mph - -   Partly Cloudy
11:40 AM 84.2 °F 90.9 °F 73.4 °F 70% 29.71 in 3.7 mi SW 10.4 mph - N/A   Mostly Cloudy
12:10 PM 86.0 °F 96.9 °F 77.0 °F 74% 29.71 in 4.3 mi WSW 6.9 mph - N/A   Mostly Cloudy
12:40 PM 87.8 °F 95.6 °F 73.4 °F 62% 29.68 in 4.3 mi WSW 12.7 mph - N/A   Mostly Cloudy
1:10 PM 87.8 °F 97.6 °F 75.2 °F 66% 29.68 in 4.3 mi SSW 9.2 mph - N/A   Mostly Cloudy
1:40 PM 87.8 °F 97.6 °F 75.2 °F 66% 29.65 in 4.3 mi SW 11.5 mph - N/A   Mostly Cloudy
2:10 PM 89.6 °F 98.2 °F 73.4 °F 59% 29.65 in 4.3 mi SW 13.8 mph - N/A   Mostly Cloudy
2:30 PM 90 °F - 74 °F 51% 29.68 in 6 mi SSW 4.6 mph - -   Partly Cloudy
2:40 PM 89.6 °F 96.2 °F 71.6 °F 55% 29.65 in 4.3 mi WSW 15.0 mph - N/A   Mostly Cloudy
3:10 PM 89.6 °F 98.2 °F 73.4 °F 59% 29.62 in 4.3 mi West 13.8 mph - N/A   Mostly Cloudy
3:40 PM 87.8 °F 95.6 °F 73.4 °F 62% 29.62 in 4.3 mi SW 13.8 mph - N/A   Mostly Cloudy
4:10 PM 87.8 °F 95.6 °F 73.4 °F 62% 29.62 in 4.3 mi SW 11.5 mph - N/A   Mostly Cloudy
4:40 PM 87.8 °F 97.6 °F 75.2 °F 66% 29.62 in 4.3 mi SSW 11.5 mph - N/A   Mostly Cloudy
5:10 PM 86.0 °F 95.1 °F 75.2 °F 70% 29.62 in 3.7 mi SSW 9.2 mph - N/A   Mostly Cloudy
5:30 PM 86 °F - 76 °F 66% 29.67 in 6 mi Calm Calm - -   Partly Cloudy
5:40 PM 86.0 °F 93.4 °F 73.4 °F 66% 29.62 in 3.7 mi SSW 8.1 mph - N/A   Mostly Cloudy
6:10 PM 86.0 °F 93.4 °F 73.4 °F 66% 29.65 in 3.7 mi South 5.8 mph - N/A   Mostly Cloudy
6:40 PM 86.0 °F 95.1 °F 75.2 °F 70% 29.65 in 3.7 mi SSW 5.8 mph - N/A   Mostly Cloudy
7:10 PM 84.2 °F 92.3 °F 75.2 °F 74% 29.68 in 3.7 mi South 5.8 mph - N/A   Mostly Cloudy
7:40 PM 84.2 °F 94.1 °F 77.0 °F 79% 29.68 in 3.7 mi South 5.8 mph - N/A   Mostly Cloudy
8:10 PM 84.2 °F 94.1 °F 77.0 °F 79% 29.71 in 3.7 mi South 6.9 mph - N/A   Mostly Cloudy
8:30 PM 84 °F - 78 °F 78% 29.75 in 2 mi NW 2.3 mph - -   Overcast
8:40 PM 82.4 °F 90.9 °F 77.0 °F 84% 29.74 in 3.7 mi WSW 3.5 mph - N/A   Mostly Cloudy
9:10 PM 82.4 °F 90.9 °F 77.0 °F 84% 29.74 in 3.7 mi South 4.6 mph - N/A   Mostly Cloudy
9:40 PM 82.4 °F 90.9 °F 77.0 °F 84% 29.74 in 3.7 mi South 4.6 mph - N/A   Mostly Cloudy
10:10 PM 82.4 °F 90.9 °F 77.0 °F 84% 29.74 in 3.7 mi South 4.6 mph - N/A   Mostly Cloudy
10:40 PM 82.4 °F 90.9 °F 77.0 °F 84% 29.77 in 3.7 mi Calm Calm - N/A   Mostly Cloudy
11:10 PM 82.4 °F 90.9 °F 77.0 °F 84% 29.77 in 3.7 mi Variable 3.5 mph - N/A   Mostly Cloudy
11:30 PM 82 °F - 79 °F 89% 29.76 in 2 mi Calm Calm - - Rain Light Drizzle
11:40 PM 80.6 °F 87.1 °F 77.0 °F 89% 29.74 in 3.7 mi Variable 3.5 mph - N/A   Light Drizzle